QPF
0.00 0.00 0.00 0.01 0.00 0.01 0.01 0.00 0.00 0.00 0.01 0.01 0.00 0.00 0.00 0.00 0.00 0.00 0.00 0.00 0.00 0.00 0.00 0.00 0.00 0.00 0.00 0.00 0.01 0.01 0.01 0.01 0.01 0.01 0.00 0.00 0.00 0.00 0.00 0.00 0.00 0.00 0.00 0.00 0.00 0.01 0.01 0.02 0.02
0.00 0.00 0.00 0.00 0.01 0.01 0.00 0.00 0.00 0.00 0.00 0.01 0.01 0.00 0.00 0.00 0.00 0.00 0.00 0.00 0.00 0.00 0.00 0.00 0.00 0.00 0.00 0.00 0.01 0.01 0.01 0.01 0.01 0.00 0.00 0.00 0.00 0.00 0.00 0.00 0.00 0.00 0.00 0.00 0.00 0.00 0.00 0.01 0.01
0.00 0.00 0.00 0.01 0.01 0.01 0.00 0.00 0.00 0.00 0.00 0.00 0.00 0.00 0.00 0.00 0.00 0.00 0.00 0.00 0.00 0.00 0.00 0.00 0.00 0.00 0.00 0.00 0.01 0.01 0.01 0.01 0.01 0.00 0.00 0.00 0.00 0.00 0.00 0.00 0.00 0.00 0.00 0.00 0.00 0.00 0.00 0.00 0.00
0.00 0.00 0.01 0.01 0.01 0.01 0.01 0.00 0.00 0.00 0.00 0.00 0.00 0.00 0.00 0.00 0.00 0.00 0.00 0.00 0.00 0.00 0.00 0.00 0.01 0.00 0.00 0.01 0.01 0.01 0.01 0.01 0.00 0.00 0.00 0.00 0.00 0.00 0.00 0.00 0.00 0.00 0.01 0.01 0.01 0.01 0.00 0.00 0.00
0.00 0.00 0.00 0.01 0.01 0.00 0.00 0.00 0.00 0.00 0.00 0.00 0.01 0.00 0.00 0.00 0.00 0.00 0.00 0.00 0.00 0.00 0.00 0.01 0.01 0.01 0.01 0.00 0.00 0.00 0.00 0.00 0.00 0.00 0.00 0.00 0.00 0.00 0.01 0.01 0.01 0.01 0.01 0.01 0.01 0.01 0.01 0.00 0.00
0.00 0.00 0.00 0.01 0.00 0.00 0.00 0.00 0.00 0.00 0.00 0.00 0.01 0.00 0.00 0.00 0.00 0.00 0.00 0.00 0.00 0.00 0.01 0.01 0.02 0.01 0.01 0.01 0.01 0.00 0.00 0.00 0.00 0.00 0.00 0.00 0.00 0.01 0.01 0.01 0.01 0.01 0.01 0.01 0.01 0.01 0.01 0.01 0.00
0.00 0.00 0.00 0.00 0.00 0.00 0.00 0.00 0.00 0.00 0.00 0.00 0.00 0.00 0.00 0.00 0.00 0.00 0.00 0.01 0.01 0.01 0.01 0.02 0.02 0.02 0.02 0.02 0.02 0.01 0.01 0.01 0.01 0.00 0.00 0.00 0.01 0.01 0.01 0.01 0.01 0.01 0.01 0.01 0.01 0.01 0.01 0.01 0.01
0.00 0.00 0.00 0.00 0.00 0.00 0.00 0.00 0.00 0.00 0.00 0.00 0.00 0.00 0.00 0.00 0.00 0.00 0.01 0.02 0.02 0.02 0.02 0.03 0.04 0.04 0.04 0.03 0.03 0.03 0.02 0.02 0.02 0.02 0.02 0.02 0.01 0.02 0.02 0.02 0.02 0.02 0.02 0.02 0.01 0.01 0.02 0.02 0.01
0.00 0.00 0.00 0.00 0.00 0.00 0.00 0.00 0.00 0.00 0.00 0.00 0.01 0.01 0.00 0.00 0.00 0.01 0.02 0.03 0.04 0.05 0.05 0.05 0.05 0.06 0.05 0.05 0.05 0.05 0.06 0.05 0.04 0.04 0.03 0.03 0.03 0.04 0.04 0.04 0.03 0.03 0.03 0.03 0.03 0.02 0.02 0.02 0.02
0.00 0.00 0.00 0.00 0.00 0.00 0.00 0.00 0.00 0.00 0.00 0.00 0.00 0.00 0.00 0.00 0.01 0.02 0.03 0.03 0.05 0.08 0.08 0.07 0.06 0.07 0.07 0.06 0.08 0.10 0.10 0.09 0.09 0.09 0.08 0.08 0.07 0.07 0.05 0.05 0.04 0.04 0.04 0.04 0.04 0.05 0.05 0.04 0.04
0.00 0.00 0.00 0.00 0.00 0.00 0.00 0.00 0.00 0.00 0.00 0.00 0.00 0.00 0.00 0.01 0.02 0.02 0.02 0.04 0.08 0.10 0.08 0.07 0.06 0.06 0.07 0.08 0.08 0.10 0.11 0.11 0.11 0.11 0.12 0.11 0.10 0.09 0.08 0.08 0.07 0.07 0.06 0.07 0.08 0.08 0.07 0.08 0.07
0.00 0.00 0.00 0.00 0.00 0.00 0.00 0.00 0.00 0.00 0.00 0.00 0.00 0.00 0.01 0.01 0.02 0.02 0.02 0.04 0.05 0.07 0.07 0.08 0.07 0.06 0.07 0.08 0.09 0.10 0.11 0.12 0.13 0.15 0.14 0.13 0.12 0.11 0.11 0.11 0.09 0.07 0.07 0.09 0.12 0.13 0.13 0.13 0.11
0.00 0.00 0.00 0.00 0.00 0.00 0.00 0.00 0.00 0.01 0.01 0.01 0.01 0.01 0.01 0.02 0.03 0.04 0.05 0.06 0.05 0.05 0.05 0.06 0.05 0.06 0.07 0.10 0.15 0.12 0.11 0.13 0.14 0.16 0.15 0.14 0.14 0.14 0.14 0.13 0.09 0.08 0.08 0.09 0.12 0.15 0.16 0.17 0.15
0.00 0.00 0.00 0.00 0.00 0.00 0.00 0.00 0.00 0.01 0.02 0.02 0.02 0.03 0.03 0.03 0.03 0.03 0.04 0.06 0.07 0.08 0.07 0.08 0.09 0.10 0.13 0.15 0.16 0.17 0.16 0.14 0.16 0.18 0.17 0.16 0.17 0.21 0.23 0.19 0.11 0.09 0.08 0.09 0.12 0.16 0.17 0.17 0.18
0.00 0.00 0.00 0.00 0.00 0.00 0.01 0.01 0.01 0.01 0.01 0.02 0.03 0.03 0.03 0.02 0.02 0.03 0.04 0.05 0.08 0.09 0.10 0.14 0.15 0.13 0.16 0.17 0.18 0.21 0.20 0.20 0.23 0.22 0.19 0.18 0.18 0.19 0.19 0.20 0.16 0.15 0.15 0.12 0.13 0.15 0.19 0.16 0.16
0.00 0.00 0.00 0.00 0.00 0.01 0.01 0.02 0.02 0.02 0.03 0.03 0.03 0.03 0.03 0.02 0.03 0.04 0.04 0.05 0.06 0.08 0.10 0.11 0.13 0.12 0.13 0.16 0.20 0.19 0.15 0.15 0.18 0.14 0.14 0.16 0.16 0.15 0.14 0.13 0.13 0.14 0.13 0.12 0.12 0.15 0.17 0.17 0.17
0.00 0.00 0.00 0.00 0.00 0.01 0.01 0.02 0.02 0.03 0.05 0.04 0.03 0.03 0.03 0.03 0.04 0.05 0.05 0.04 0.05 0.07 0.10 0.11 0.11 0.11 0.10 0.10 0.10 0.08 0.08 0.09 0.10 0.08 0.08 0.08 0.08 0.09 0.10 0.10 0.12 0.13 0.13 0.12 0.10 0.11 0.12 0.14 0.16
0.00 0.00 0.00 0.01 0.00 0.01 0.01 0.02 0.02 0.03 0.04 0.03 0.03 0.03 0.03 0.03 0.02 0.02 0.02 0.03 0.04 0.04 0.05 0.06 0.07 0.08 0.07 0.06 0.06 0.06 0.04 0.04 0.04 0.05 0.05 0.05 0.05 0.05 0.06 0.07 0.08 0.08 0.09 0.10 0.08 0.08 0.09 0.10 0.12
0.00 0.00 0.01 0.01 0.00 0.01 0.01 0.02 0.03 0.03 0.04 0.03 0.03 0.03 0.03 0.02 0.01 0.01 0.01 0.02 0.03 0.02 0.02 0.03 0.04 0.04 0.03 0.02 0.02 0.03 0.03 0.03 0.03 0.03 0.04 0.03 0.03 0.03 0.04 0.04 0.05 0.05 0.05 0.06 0.06 0.06 0.06 0.07 0.08
0.00 0.00 0.01 0.01 0.01 0.01 0.02 0.02 0.02 0.02 0.03 0.05 0.04 0.04 0.02 0.02 0.01 0.02 0.01 0.01 0.01 0.01 0.01 0.01 0.02 0.01 0.01 0.01 0.01 0.01 0.01 0.02 0.02 0.01 0.01 0.01 0.02 0.03 0.04 0.05 0.05 0.05 0.04 0.04 0.04 0.04 0.04 0.04 0.06
0.00 0.00 0.00 0.01 0.02 0.02 0.02 0.02 0.02 0.01 0.03 0.04 0.04 0.04 0.02 0.02 0.01 0.01 0.01 0.01 0.01 0.00 0.00 0.01 0.01 0.01 0.01 0.01 0.01 0.01 0.01 0.01 0.01 0.01 0.01 0.02 0.03 0.03 0.03 0.04 0.05 0.05 0.04 0.03 0.03 0.02 0.03 0.03 0.06
0.00 0.00 0.00 0.01 0.02 0.02 0.02 0.04 0.02 0.01 0.02 0.02 0.02 0.02 0.02 0.02 0.01 0.01 0.01 0.01 0.01 0.01 0.01 0.01 0.00 0.01 0.01 0.00 0.01 0.01 0.01 0.01 0.01 0.01 0.01 0.01 0.01 0.02 0.02 0.02 0.02 0.02 0.02 0.02 0.03 0.02 0.03 0.04 0.05
0.00 0.00 0.00 0.01 0.01 0.02 0.01 0.02 0.02 0.01 0.01 0.01 0.01 0.01 0.01 0.00 0.00 0.01 0.01 0.00 0.00 0.00 0.00 0.00 0.00 0.00 0.00 0.00 0.00 0.01 0.01 0.01 0.01 0.00 0.00 0.00 0.00 0.00 0.00 0.01 0.01 0.01 0.02 0.02 0.03 0.03 0.04 0.05 0.05
0.00 0.00 0.00 0.01 0.01 0.02 0.01 0.01 0.02 0.01 0.01 0.01 0.01 0.00 0.00 0.00 0.00 0.00 0.00 0.00 0.00 0.00 0.00 0.00 0.00 0.00 0.00 0.00 0.00 0.01 0.01 0.00 0.00 0.00 0.00 0.00 0.00 0.00 0.00 0.00 0.01 0.02 0.02 0.03 0.03 0.03 0.04 0.04 0.05
0.00 0.00 0.01 0.02 0.02 0.02 0.00 0.01 0.01 0.00 0.00 0.00 0.00 0.00 0.00 0.00 0.00 0.00 0.00 0.00 0.00 0.00 0.00 0.00 0.00 0.00 0.00 0.00 0.00 0.00 0.00 0.00 0.00 0.00 0.00 0.00 0.00 0.00 0.00 0.00 0.00 0.01 0.02 0.03 0.04 0.05 0.04 0.04 0.04
0.00 0.00 0.01 0.01 0.01 0.01 0.00 0.01 0.00 0.00 0.00 0.00 0.00 0.00 0.00 0.00 0.00 0.00 0.00 0.00 0.00 0.00 0.00 0.00 0.00 0.00 0.00 0.00 0.00 0.00 0.00 0.00 0.00 0.00 0.00 0.00 0.00 0.00 0.00 0.00 0.00 0.00 0.01 0.01 0.02 0.03 0.04 0.04 0.04
0.00 0.00 0.00 0.00 0.00 0.01 0.00 0.00 0.00 0.00 0.00 0.00 0.00 0.00 0.00 0.00 0.00 0.00 0.00 0.00 0.00 0.00 0.00 0.00 0.00 0.00 0.00 0.00 0.00 0.00 0.00 0.00 0.00 0.00 0.00 0.00 0.00 0.00 0.00 0.00 0.00 0.01 0.01 0.01 0.02 0.02 0.02 0.03 0.03
0.00 0.00 0.00 0.00 0.00 0.00 0.00 0.00 0.00 0.00 0.00 0.00 0.00 0.00 0.00 0.00 0.00 0.00 0.00 0.00 0.00 0.00 0.00 0.00 0.00 0.00 0.00 0.00 0.00 0.00 0.00 0.00 0.00 0.00 0.00 0.00 0.00 0.00 0.00 0.00 0.00 0.01 0.01 0.01 0.01 0.01 0.01 0.02 0.02
0.00 0.00 0.00 0.00 0.00 0.00 0.00 0.00 0.00 0.00 0.00 0.00 0.00 0.00 0.00 0.00 0.00 0.00 0.00 0.00 0.00 0.00 0.00 0.00 0.00 0.00 0.00 0.00 0.00 0.00 0.00 0.00 0.00 0.00 0.00 0.00 0.00 0.00 0.00 0.00 0.00 0.01 0.01 0.01 0.02 0.02 0.01 0.02 0.02
0.00 0.00 0.00 0.00 0.00 0.00 0.00 0.00 0.00 0.00 0.00 0.00 0.00 0.00 0.00 0.00 0.00 0.00 0.00 0.00 0.00 0.00 0.00 0.00 0.00 0.00 0.00 0.00 0.00 0.00 0.00 0.00 0.00 0.00 0.00 0.00 0.00 0.00 0.00 0.00 0.00 0.00 0.01 0.01 0.02 0.02 0.02 0.02 0.02
MSLP
1013.19 1013.66 1014.11 1014.44 1014.55 1014.40 1013.98 1013.35 1012.59 1011.80 1011.08 1010.50 1010.10 1009.85 1009.73 1009.68 1009.66 1009.65 1009.66 1009.71 1009.84 1010.08 1010.45 1010.94 1011.48 1012.04 1012.53 1012.93 1013.21 1013.40 1013.53 1013.66 1013.84 1014.11 1014.45 1014.86 1015.29 1015.68 1015.99 1016.21 1016.33 1016.39 1016.42 1016.46 1016.53 1016.64 1016.77 1016.91 1017.02
1013.21 1013.71 1014.16 1014.46 1014.52 1014.29 1013.79 1013.08 1012.24 1011.38 1010.61 1010.00 1009.58 1009.34 1009.25 1009.24 1009.29 1009.35 1009.43 1009.55 1009.75 1010.05 1010.47 1011.00 1011.59 1012.18 1012.72 1013.17 1013.51 1013.76 1013.94 1014.11 1014.31 1014.57 1014.88 1015.23 1015.58 1015.89 1016.13 1016.29 1016.37 1016.42 1016.46 1016.54 1016.65 1016.81 1016.99 1017.16 1017.28
1013.33 1013.84 1014.26 1014.50 1014.48 1014.17 1013.60 1012.82 1011.93 1011.04 1010.26 1009.65 1009.24 1009.02 1008.95 1008.99 1009.07 1009.18 1009.31 1009.48 1009.72 1010.06 1010.52 1011.08 1011.70 1012.33 1012.92 1013.42 1013.82 1014.13 1014.36 1014.57 1014.79 1015.03 1015.30 1015.59 1015.87 1016.10 1016.26 1016.36 1016.42 1016.46 1016.53 1016.64 1016.81 1017.02 1017.24 1017.43 1017.55
1013.54 1014.02 1014.39 1014.54 1014.44 1014.05 1013.41 1012.59 1011.69 1010.82 1010.06 1009.49 1009.12 1008.94 1008.91 1008.97 1009.07 1009.20 1009.35 1009.54 1009.79 1010.15 1010.62 1011.19 1011.82 1012.48 1013.10 1013.64 1014.09 1014.44 1014.72 1014.96 1015.18 1015.41 1015.65 1015.89 1016.10 1016.26 1016.37 1016.44 1016.48 1016.54 1016.63 1016.79 1017.00 1017.25 1017.49 1017.70 1017.82
1013.81 1014.24 1014.51 1014.57 1014.36 1013.90 1013.22 1012.40 1011.53 1010.72 1010.04 1009.55 1009.25 1009.12 1009.12 1009.19 1009.31 1009.43 1009.56 1009.74 1009.99 1010.33 1010.79 1011.35 1011.98 1012.63 1013.26 1013.82 1014.29 1014.67 1014.97 1015.22 1015.45 1015.67 1015.88 1016.07 1016.24 1016.37 1016.45 1016.51 1016.56 1016.63 1016.76 1016.95 1017.19 1017.46 1017.72 1017.92 1018.03
1014.07 1014.42 1014.59 1014.54 1014.24 1013.72 1013.03 1012.24 1011.45 1010.74 1010.17 1009.79 1009.58 1009.51 1009.54 1009.63 1009.72 1009.82 1009.93 1010.07 1010.29 1010.60 1011.03 1011.56 1012.17 1012.80 1013.41 1013.96 1014.43 1014.80 1015.10 1015.35 1015.57 1015.77 1015.96 1016.13 1016.28 1016.39 1016.48 1016.54 1016.62 1016.72 1016.87 1017.08 1017.33 1017.61 1017.86 1018.04 1018.14
1014.27 1014.53 1014.58 1014.42 1014.05 1013.49 1012.82 1012.10 1011.42 1010.84 1010.41 1010.15 1010.04 1010.03 1010.10 1010.18 1010.26 1010.32 1010.39 1010.49 1010.66 1010.94 1011.34 1011.83 1012.40 1013.00 1013.57 1014.09 1014.52 1014.87 1015.14 1015.37 1015.56 1015.74 1015.91 1016.08 1016.22 1016.34 1016.44 1016.53 1016.63 1016.76 1016.92 1017.14 1017.38 1017.64 1017.86 1018.02 1018.09
1014.38 1014.52 1014.46 1014.21 1013.78 1013.22 1012.59 1011.97 1011.41 1010.99 1010.70 1010.56 1010.54 1010.60 1010.68 1010.76 1010.81 1010.83 1010.86 1010.93 1011.07 1011.32 1011.68 1012.14 1012.68 1013.23 1013.76 1014.22 1014.61 1014.91 1015.15 1015.33 1015.49 1015.64 1015.80 1015.95 1016.10 1016.24 1016.36 1016.47 1016.59 1016.73 1016.90 1017.10 1017.31 1017.53 1017.71 1017.83 1017.88
1014.36 1014.39 1014.24 1013.92 1013.47 1012.93 1012.37 1011.86 1011.44 1011.16 1011.01 1010.98 1011.03 1011.13 1011.22 1011.28 1011.31 1011.30 1011.30 1011.34 1011.47 1011.70 1012.04 1012.48 1012.98 1013.49 1013.97 1014.39 1014.73 1014.98 1015.16 1015.30 1015.42 1015.55 1015.68 1015.82 1015.97 1016.11 1016.24 1016.37 1016.50 1016.64 1016.79 1016.96 1017.13 1017.30 1017.43 1017.51 1017.54
1014.22 1014.17 1013.95 1013.59 1013.14 1012.66 1012.20 1011.80 1011.52 1011.37 1011.33 1011.38 1011.48 1011.59 1011.68 1011.72 1011.72 1011.69 1011.67 1011.71 1011.83 1012.06 1012.39 1012.82 1013.29 1013.77 1014.22 1014.59 1014.88 1015.08 1015.22 1015.32 1015.40 1015.49 1015.60 1015.72 1015.86 1016.00 1016.14 1016.27 1016.39 1016.51 1016.63 1016.76 1016.88 1016.99 1017.07 1017.11 1017.11
1014.01 1013.89 1013.64 1013.29 1012.88 1012.48 1012.12 1011.86 1011.69 1011.64 1011.68 1011.77 1011.89 1011.99 1012.06 1012.07 1012.05 1012.01 1011.99 1012.02 1012.15 1012.39 1012.72 1013.14 1013.60 1014.05 1014.46 1014.80 1015.05 1015.22 1015.32 1015.38 1015.43 1015.49 1015.58 1015.68 1015.81 1015.94 1016.07 1016.18 1016.29 1016.38 1016.47 1016.55 1016.62 1016.67 1016.70 1016.70 1016.68
1013.78 1013.63 1013.38 1013.06 1012.74 1012.44 1012.21 1012.06 1012.01 1012.03 1012.11 1012.21 1012.31 1012.38 1012.41 1012.39 1012.34 1012.29 1012.27 1012.31 1012.45 1012.70 1013.03 1013.43 1013.87 1014.30 1014.68 1014.98 1015.20 1015.35 1015.42 1015.47 1015.50 1015.54 1015.61 1015.70 1015.81 1015.93 1016.04 1016.15 1016.23 1016.30 1016.35 1016.39 1016.41 1016.41 1016.40 1016.37 1016.33
1013.57 1013.42 1013.21 1012.98 1012.77 1012.60 1012.50 1012.47 1012.50 1012.57 1012.66 1012.74 1012.80 1012.81 1012.78 1012.72 1012.64 1012.58 1012.57 1012.62 1012.76 1013.00 1013.32 1013.70 1014.10 1014.49 1014.83 1015.11 1015.31 1015.44 1015.51 1015.54 1015.57 1015.61 1015.67 1015.75 1015.86 1015.96 1016.07 1016.16 1016.23 1016.27 1016.30 1016.30 1016.29 1016.26 1016.21 1016.15 1016.08
1013.44 1013.32 1013.18 1013.06 1012.99 1012.97 1013.00 1013.08 1013.17 1013.27 1013.34 1013.38 1013.37 1013.32 1013.23 1013.13 1013.02 1012.95 1012.93 1012.98 1013.11 1013.32 1013.61 1013.94 1014.29 1014.62 1014.92 1015.16 1015.34 1015.46 1015.53 1015.57 1015.61 1015.65 1015.72 1015.80 1015.91 1016.01 1016.12 1016.21 1016.27 1016.31 1016.32 1016.31 1016.27 1016.22 1016.14 1016.06 1015.96
1013.40 1013.33 1013.29 1013.30 1013.38 1013.50 1013.67 1013.84 1013.99 1014.09 1014.13 1014.11 1014.04 1013.91 1013.77 1013.62 1013.49 1013.40 1013.37 1013.41 1013.51 1013.69 1013.91 1014.18 1014.45 1014.72 1014.96 1015.16 1015.32 1015.42 1015.50 1015.55 1015.59 1015.65 1015.73 1015.82 1015.93 1016.05 1016.17 1016.27 1016.34 1016.39 1016.40 1016.38 1016.33 1016.26 1016.16 1016.05 1015.93
1013.42 1013.42 1013.50 1013.65 1013.87 1014.14 1014.42 1014.67 1014.86 1014.95 1014.96 1014.88 1014.73 1014.54 1014.34 1014.16 1014.02 1013.92 1013.88 1013.90 1013.97 1014.09 1014.25 1014.44 1014.63 1014.82 1015.00 1015.15 1015.27 1015.36 1015.43 1015.49 1015.55 1015.62 1015.70 1015.81 1015.93 1016.06 1016.19 1016.31 1016.40 1016.46 1016.49 1016.47 1016.42 1016.33 1016.21 1016.08 1015.92
1013.50 1013.58 1013.76 1014.04 1014.40 1014.79 1015.16 1015.47 1015.68 1015.75 1015.71 1015.57 1015.36 1015.13 1014.90 1014.70 1014.55 1014.46 1014.42 1014.43 1014.47 1014.54 1014.63 1014.74 1014.85 1014.97 1015.08 1015.18 1015.27 1015.34 1015.40 1015.46 1015.51 1015.58 1015.66 1015.77 1015.90 1016.04 1016.18 1016.31 1016.43 1016.50 1016.54 1016.53 1016.47 1016.37 1016.24 1016.07 1015.89
1013.58 1013.73 1014.01 1014.41 1014.88 1015.37 1015.80 1016.14 1016.34 1016.39 1016.30 1016.10 1015.85 1015.58 1015.34 1015.15 1015.02 1014.95 1014.93 1014.94 1014.96 1015.00 1015.04 1015.08 1015.13 1015.18 1015.24 1015.30 1015.35 1015.41 1015.45 1015.49 1015.54 1015.59 1015.65 1015.74 1015.86 1015.99 1016.14 1016.28 1016.41 1016.50 1016.54 1016.53 1016.46 1016.35 1016.19 1016.00 1015.78
1013.63 1013.86 1014.23 1014.71 1015.26 1015.80 1016.27 1016.61 1016.78 1016.78 1016.64 1016.40 1016.11 1015.83 1015.60 1015.44 1015.35 1015.33 1015.34 1015.38 1015.41 1015.44 1015.45 1015.45 1015.46 1015.47 1015.49 1015.53 1015.57 1015.60 1015.63 1015.65 1015.66 1015.67 1015.71 1015.76 1015.84 1015.96 1016.09 1016.22 1016.34 1016.43 1016.47 1016.45 1016.37 1016.24 1016.06 1015.83 1015.59
1013.65 1013.94 1014.38 1014.92 1015.52 1016.08 1016.55 1016.85 1016.98 1016.92 1016.72 1016.43 1016.12 1015.85 1015.65 1015.54 1015.51 1015.55 1015.63 1015.71 1015.78 1015.81 1015.83 1015.82 1015.81 1015.82 1015.83 1015.86 1015.89 1015.92 1015.93 1015.92 1015.89 1015.86 1015.84 1015.84 1015.88 1015.95 1016.04 1016.15 1016.26 1016.33 1016.36 1016.32 1016.22 1016.06 1015.85 1015.61 1015.34
1013.62 1013.97 1014.46 1015.05 1015.66 1016.22 1016.64 1016.89 1016.95 1016.82 1016.56 1016.24 1015.92 1015.67 1015.51 1015.46 1015.51 1015.63 1015.78 1015.92 1016.03 1016.10 1016.14 1016.15 1016.16 1016.17 1016.20 1016.24 1016.28 1016.31 1016.31 1016.28 1016.21 1016.13 1016.05 1015.99 1015.96 1015.97 1016.02 1016.09 1016.16 1016.21 1016.21 1016.15 1016.03 1015.84 1015.61 1015.34 1015.06
1013.59 1013.99 1014.52 1015.13 1015.73 1016.25 1016.62 1016.79 1016.77 1016.57 1016.26 1015.90 1015.59 1015.36 1015.25 1015.27 1015.40 1015.60 1015.82 1016.02 1016.19 1016.30 1016.36 1016.40 1016.43 1016.48 1016.53 1016.60 1016.66 1016.70 1016.71 1016.66 1016.56 1016.44 1016.30 1016.17 1016.07 1016.02 1016.01 1016.04 1016.07 1016.08 1016.06 1015.97 1015.82 1015.61 1015.36 1015.08 1014.80
1013.57 1014.02 1014.58 1015.19 1015.77 1016.25 1016.55 1016.64 1016.54 1016.27 1015.91 1015.54 1015.23 1015.03 1014.97 1015.06 1015.26 1015.52 1015.81 1016.06 1016.26 1016.41 1016.50 1016.56 1016.62 1016.69 1016.78 1016.87 1016.97 1017.03 1017.04 1016.99 1016.87 1016.71 1016.52 1016.34 1016.18 1016.07 1016.01 1015.98 1015.97 1015.95 1015.90 1015.79 1015.62 1015.39 1015.12 1014.84 1014.55
1013.59 1014.08 1014.66 1015.27 1015.82 1016.24 1016.48 1016.51 1016.34 1016.02 1015.62 1015.24 1014.94 1014.78 1014.77 1014.91 1015.16 1015.47 1015.80 1016.08 1016.30 1016.46 1016.57 1016.64 1016.71 1016.80 1016.91 1017.03 1017.14 1017.23 1017.25 1017.20 1017.08 1016.90 1016.68 1016.45 1016.25 1016.08 1015.97 1015.90 1015.85 1015.80 1015.71 1015.59 1015.40 1015.16 1014.89 1014.60 1014.32
1013.64 1014.16 1014.75 1015.35 1015.88 1016.26 1016.44 1016.41 1016.20 1015.85 1015.44 1015.07 1014.79 1014.66 1014.69 1014.87 1015.15 1015.49 1015.83 1016.12 1016.34 1016.49 1016.59 1016.65 1016.72 1016.81 1016.92 1017.05 1017.18 1017.28 1017.31 1017.27 1017.15 1016.96 1016.72 1016.46 1016.22 1016.02 1015.87 1015.76 1015.68 1015.59 1015.49 1015.35 1015.15 1014.91 1014.64 1014.35 1014.08
1013.70 1014.24 1014.84 1015.42 1015.92 1016.26 1016.41 1016.35 1016.12 1015.76 1015.37 1015.02 1014.78 1014.68 1014.75 1014.95 1015.25 1015.60 1015.93 1016.20 1016.40 1016.53 1016.60 1016.64 1016.68 1016.75 1016.85 1016.97 1017.10 1017.20 1017.24 1017.20 1017.08 1016.88 1016.63 1016.36 1016.10 1015.86 1015.68 1015.54 1015.42 1015.32 1015.20 1015.04 1014.84 1014.59 1014.32 1014.03 1013.76
1013.75 1014.29 1014.87 1015.43 1015.90 1016.22 1016.34 1016.28 1016.05 1015.73 1015.37 1015.06 1014.86 1014.80 1014.89 1015.12 1015.42 1015.76 1016.07 1016.32 1016.49 1016.58 1016.61 1016.62 1016.63 1016.67 1016.74 1016.84 1016.95 1017.03 1017.06 1017.01 1016.89 1016.68 1016.43 1016.14 1015.86 1015.61 1015.39 1015.22 1015.08 1014.95 1014.81 1014.64 1014.43 1014.18 1013.90 1013.62 1013.35
1013.75 1014.26 1014.81 1015.34 1015.77 1016.06 1016.19 1016.14 1015.94 1015.66 1015.36 1015.11 1014.96 1014.94 1015.06 1015.29 1015.60 1015.92 1016.21 1016.43 1016.57 1016.64 1016.64 1016.62 1016.60 1016.60 1016.64 1016.70 1016.77 1016.82 1016.82 1016.76 1016.61 1016.40 1016.13 1015.83 1015.54 1015.26 1015.02 1014.82 1014.65 1014.50 1014.33 1014.14 1013.92 1013.66 1013.38 1013.09 1012.81
1013.68 1014.14 1014.63 1015.10 1015.50 1015.77 1015.89 1015.86 1015.72 1015.50 1015.27 1015.09 1015.00 1015.02 1015.17 1015.41 1015.71 1016.02 1016.29 1016.50 1016.62 1016.68 1016.67 1016.63 1016.59 1016.57 1016.57 1016.59 1016.61 1016.61 1016.57 1016.47 1016.30 1016.06 1015.77 1015.46 1015.15 1014.85 1014.59 1014.36 1014.16 1013.97 1013.78 1013.57 1013.32 1013.05 1012.75 1012.45 1012.15
1013.54 1013.92 1014.34 1014.75 1015.08 1015.32 1015.45 1015.45 1015.36 1015.21 1015.06 1014.95 1014.92 1014.99 1015.16 1015.41 1015.71 1016.01 1016.27 1016.48 1016.61 1016.67 1016.67 1016.64 1016.59 1016.55 1016.52 1016.50 1016.47 1016.42 1016.33 1016.18 1015.97 1015.70 1015.39 1015.06 1014.73 1014.41 1014.12 1013.87 1013.64 1013.42 1013.19 1012.95 1012.68 1012.38 1012.06 1011.74 1011.43
Thickness
5823 5827 5829 5823 5814 5816 5813 5821 5829 5831 5835 5844 5846 5843 5837 5830 5823 5813 5832 5841 5837 5831 5821 5811 5806 5803 5800 5797 5794 5792 5789 5786 5783 5781 5778 5776 5774 5771 5769 5767 5766 5764 5763 5761 5760 5759 5758 5756 5755
5829 5829 5824 5819 5812 5807 5809 5823 5824 5829 5840 5847 5846 5843 5837 5830 5833 5830 5832 5833 5832 5827 5818 5810 5803 5799 5796 5793 5790 5788 5785 5783 5780 5777 5775 5773 5771 5769 5767 5765 5763 5762 5761 5759 5758 5757 5756 5755 5753
5829 5828 5819 5817 5811 5805 5807 5822 5827 5837 5846 5845 5840 5840 5833 5823 5828 5830 5832 5830 5828 5822 5815 5806 5799 5795 5791 5789 5786 5784 5781 5779 5776 5774 5772 5770 5768 5766 5764 5762 5761 5760 5758 5757 5756 5755 5753 5752 5751
5826 5820 5817 5811 5808 5813 5815 5823 5832 5834 5841 5844 5840 5830 5828 5823 5826 5830 5829 5828 5823 5819 5812 5801 5794 5790 5787 5784 5782 5779 5777 5775 5772 5770 5768 5766 5764 5763 5761 5760 5758 5757 5756 5755 5754 5752 5751 5750 5749
5823 5815 5808 5807 5809 5815 5823 5829 5833 5830 5831 5835 5835 5823 5816 5820 5826 5826 5824 5823 5818 5815 5808 5798 5790 5786 5782 5779 5777 5774 5772 5770 5768 5766 5764 5763 5761 5759 5758 5757 5756 5755 5754 5752 5751 5750 5749 5748 5747
5812 5809 5800 5800 5805 5812 5822 5830 5830 5826 5827 5830 5829 5820 5809 5816 5818 5818 5819 5817 5816 5811 5804 5793 5785 5781 5778 5775 5772 5770 5768 5766 5764 5762 5761 5759 5758 5756 5755 5754 5752 5751 5751 5750 5749 5747 5746 5745 5744
5802 5800 5796 5798 5798 5802 5813 5826 5822 5820 5818 5821 5828 5817 5808 5808 5812 5813 5812 5811 5810 5806 5800 5790 5783 5778 5773 5771 5769 5766 5764 5762 5760 5758 5757 5756 5754 5753 5752 5751 5750 5749 5748 5747 5746 5745 5743 5742 5742
5805 5798 5793 5795 5791 5796 5813 5819 5819 5816 5814 5823 5824 5813 5802 5803 5808 5807 5804 5802 5801 5798 5795 5788 5782 5777 5773 5769 5764 5762 5760 5758 5756 5754 5753 5752 5750 5749 5748 5748 5747 5746 5745 5744 5743 5742 5741 5740 5739
5798 5785 5786 5791 5788 5794 5808 5808 5812 5819 5813 5811 5810 5809 5806 5805 5804 5799 5793 5791 5789 5788 5787 5784 5780 5773 5771 5768 5763 5759 5756 5754 5752 5751 5749 5748 5749 5749 5747 5746 5744 5743 5742 5741 5740 5739 5738 5737 5736
5788 5779 5785 5793 5794 5794 5798 5799 5804 5807 5801 5798 5796 5797 5800 5799 5795 5790 5787 5783 5781 5780 5779 5777 5774 5769 5766 5763 5760 5757 5755 5752 5749 5749 5747 5746 5746 5746 5746 5744 5741 5740 5739 5738 5738 5737 5736 5735 5738
5783 5778 5786 5791 5796 5795 5794 5795 5801 5797 5786 5784 5783 5785 5789 5789 5788 5785 5782 5780 5778 5776 5774 5771 5768 5765 5762 5758 5755 5753 5751 5748 5746 5745 5743 5741 5741 5741 5741 5740 5739 5738 5737 5738 5738 5737 5737 5737 5738
5778 5781 5784 5786 5792 5790 5789 5791 5786 5782 5776 5782 5784 5785 5783 5782 5781 5779 5775 5774 5773 5770 5767 5767 5764 5759 5755 5753 5750 5747 5746 5744 5743 5740 5738 5736 5736 5736 5736 5736 5736 5736 5736 5736 5735 5735 5736 5735 5734
5773 5777 5782 5786 5787 5788 5786 5781 5774 5767 5773 5777 5778 5776 5774 5773 5772 5771 5771 5768 5765 5762 5760 5759 5757 5753 5749 5747 5744 5742 5740 5739 5737 5734 5733 5731 5730 5730 5731 5731 5731 5732 5732 5733 5732 5732 5731 5731 5730
5779 5778 5779 5780 5779 5780 5775 5772 5767 5758 5766 5766 5766 5765 5765 5764 5763 5761 5759 5757 5756 5754 5752 5752 5749 5745 5742 5740 5738 5735 5733 5731 5731 5729 5727 5725 5724 5724 5725 5726 5726 5728 5728 5728 5728 5729 5728 5727 5727
5780 5773 5774 5774 5774 5774 5771 5755 5751 5755 5760 5757 5756 5755 5755 5755 5755 5753 5751 5750 5749 5747 5746 5744 5742 5739 5735 5733 5732 5729 5727 5725 5725 5724 5722 5721 5720 5719 5719 5721 5722 5722 5721 5721 5721 5723 5723 5723 5724
5776 5770 5766 5768 5770 5770 5765 5742 5744 5752 5752 5747 5747 5747 5746 5746 5747 5745 5744 5743 5742 5740 5737 5736 5734 5732 5729 5726 5724 5723 5720 5719 5719 5719 5718 5716 5714 5714 5715 5716 5716 5715 5715 5715 5716 5718 5718 5719 5719
5770 5766 5763 5761 5766 5767 5762 5741 5741 5747 5745 5740 5741 5741 5740 5738 5738 5738 5738 5736 5734 5731 5728 5727 5725 5723 5721 5719 5717 5716 5714 5713 5713 5713 5711 5710 5709 5708 5709 5710 5710 5709 5709 5709 5711 5713 5714 5714 5715
5763 5764 5761 5756 5760 5760 5752 5739 5737 5741 5741 5737 5736 5735 5733 5731 5730 5731 5730 5729 5726 5723 5720 5719 5717 5714 5713 5712 5710 5708 5708 5708 5707 5706 5703 5702 5702 5702 5703 5704 5704 5703 5704 5704 5704 5705 5708 5709 5710
5766 5760 5753 5752 5755 5752 5743 5733 5733 5737 5736 5733 5731 5729 5726 5725 5726 5726 5724 5721 5718 5715 5712 5710 5708 5706 5704 5703 5702 5700 5701 5700 5700 5698 5695 5694 5694 5695 5695 5698 5697 5696 5697 5698 5700 5700 5702 5703 5705
5763 5755 5751 5747 5750 5747 5737 5730 5732 5732 5732 5731 5727 5725 5723 5721 5719 5718 5717 5715 5712 5708 5705 5702 5700 5698 5697 5694 5693 5692 5692 5692 5692 5690 5687 5686 5686 5686 5689 5687 5689 5690 5689 5691 5692 5693 5695 5699 5701
5762 5758 5754 5746 5743 5746 5737 5724 5724 5728 5729 5728 5727 5725 5723 5720 5716 5713 5711 5708 5706 5703 5699 5698 5693 5691 5689 5687 5688 5687 5685 5685 5685 5682 5681 5679 5678 5677 5677 5678 5679 5680 5682 5684 5684 5685 5686 5689 5694
5758 5765 5759 5749 5742 5738 5737 5721 5722 5725 5722 5723 5723 5722 5721 5719 5716 5712 5708 5704 5701 5698 5695 5691 5687 5684 5681 5680 5680 5677 5675 5675 5674 5673 5673 5671 5670 5670 5669 5669 5670 5671 5674 5675 5675 5680 5679 5680 5684
5762 5765 5758 5752 5747 5740 5737 5730 5726 5727 5720 5722 5724 5723 5722 5719 5715 5710 5706 5701 5698 5694 5690 5686 5681 5677 5674 5672 5671 5668 5668 5667 5668 5666 5665 5662 5664 5662 5662 5661 5661 5662 5664 5666 5666 5668 5669 5672 5674
5764 5758 5752 5751 5750 5729 5733 5728 5724 5730 5727 5726 5726 5723 5721 5718 5714 5708 5704 5699 5694 5691 5686 5682 5676 5671 5668 5666 5664 5661 5659 5658 5657 5656 5656 5656 5658 5657 5656 5653 5652 5653 5654 5655 5656 5658 5660 5662 5664
5760 5749 5737 5731 5731 5729 5733 5729 5728 5735 5735 5732 5727 5724 5721 5717 5713 5707 5701 5695 5690 5685 5681 5677 5671 5666 5664 5661 5658 5656 5653 5651 5650 5649 5649 5647 5649 5649 5646 5644 5642 5643 5644 5644 5646 5648 5650 5653 5654
5758 5755 5736 5725 5728 5732 5730 5727 5735 5739 5737 5734 5730 5726 5720 5715 5711 5704 5699 5693 5687 5682 5677 5672 5667 5662 5659 5656 5653 5650 5647 5648 5647 5643 5640 5640 5639 5639 5635 5633 5632 5633 5634 5635 5637 5639 5641 5644 5645
5756 5757 5760 5747 5740 5733 5735 5735 5737 5736 5732 5730 5726 5722 5717 5713 5707 5702 5696 5690 5684 5679 5673 5668 5663 5658 5654 5651 5648 5646 5643 5640 5638 5635 5633 5634 5631 5630 5628 5625 5624 5624 5625 5625 5626 5629 5630 5633 5636
5768 5761 5753 5744 5726 5726 5730 5730 5734 5729 5729 5728 5724 5720 5715 5711 5706 5700 5694 5688 5683 5677 5671 5665 5660 5655 5651 5648 5645 5643 5639 5635 5631 5629 5626 5624 5622 5620 5618 5618 5617 5616 5616 5616 5617 5619 5622 5622 5625
5756 5754 5752 5750 5743 5730 5724 5731 5745 5739 5735 5729 5726 5722 5716 5710 5705 5698 5693 5687 5681 5676 5670 5663 5658 5653 5648 5644 5640 5637 5634 5631 5627 5624 5621 5618 5616 5613 5611 5610 5609 5608 5608 5608 5608 5610 5611 5612 5615
5762 5757 5752 5738 5731 5734 5733 5733 5746 5742 5738 5733 5727 5721 5716 5710 5704 5697 5691 5684 5678 5673 5667 5662 5656 5650 5646 5642 5637 5634 5630 5626 5623 5621 5617 5613 5610 5608 5606 5604 5602 5601 5601 5600 5599 5599 5602 5603 5605